Location: Callao
(39.8979°N, 113.7141°W)
Time: 12:04:17
(UTC+00:00)

ISS - Visible Passes

Search period start: 06 May 2021 00:00
Search period end: 16 May 2021 00:00
Orbit: 418 x 421 km, 51.6° (Epoch: 05 May)

Date Brightness Start Highest point End Pass type
(mag) Time Alt. Az. Time Alt. Az. Time Alt. Az.
06 May -1.1 10:05:57 13° NW 10:07:05 14° NNW 10:09:02 10° NNE visible
06 May -0.8 11:43:37 10° NNW 11:45:03 12° N 11:46:27 10° NNE visible
07 May -1.0 09:20:02 17° N 09:20:02 17° N 09:21:48 10° NNE visible
07 May -0.7 10:56:08 10° NNW 10:57:19 11° N 10:58:29 10° NNE visible
08 May -0.4 08:34:04 13° NNE 08:34:04 13° NNE 08:34:34 10° NNE visible
08 May -0.7 10:08:21 10° NNW 10:09:35 11° N 10:10:49 10° NNE visible
08 May -0.8 11:45:17 10° NNW 11:47:30 16° NNE 11:49:44 10° ENE visible
09 May -0.7 09:21:01 12° NNW 09:21:52 12° N 09:23:23 10° NNE visible
09 May -0.7 10:58:02 10° NNW 10:59:49 14° NNE 11:01:37 10° NE visible
10 May -0.5 08:35:00 13° N 08:35:00 13° N 08:36:05 10° NNE visible
10 May -0.6 10:10:42 10° NNW 10:12:06 12° N 10:13:31 10° NNE visible
10 May -1.5 11:46:49 10° NW 11:49:48 28° NNE 11:52:46 10° E visible
11 May -0.5 09:23:12 10° NNW 09:24:22 11° N 09:25:33 10° NNE visible
11 May -1.0 10:59:34 10° NNW 11:02:12 20° NNE 11:04:50 10° ENE visible
12 May -0.4 08:35:46 11° NNW 08:36:37 11° N 08:37:51 10° NNE visible
12 May -0.7 10:12:19 10° NNW 10:14:33 16° NNE 10:16:46 10° ENE visible
12 May -3.3 11:48:29 10° NW 11:51:51 67° NE 11:55:13 10° ESE visible
13 May -0.3 07:49:33 12° N 07:49:33 12° N 07:50:25 10° NNE visible
13 May -0.5 09:25:03 10° NNW 09:26:51 14° NNE 09:28:39 10° NE visible
13 May -2.3 11:01:08 10° NW 11:04:22 41° NNE 11:07:35 10° ESE visible
14 May -2.3 03:44:44 10° S 03:46:48 18° SE 03:46:48 18° SE visible
14 May -0.3 07:02:57 11° NNE 07:02:57 11° NNE 07:03:06 10° NNE visible
14 May -0.3 08:37:44 10° NNW 08:39:08 12° N 08:40:32 10° NNE visible
14 May -1.6 10:13:50 10° NW 10:16:48 28° NNE 10:19:47 10° E visible
15 May -3.7 04:32:53 10° SW 04:36:14 80° NW 04:39:36 10° NE visible
15 May -0.8 06:11:08 10° WNW 06:13:29 17° NNW 06:15:50 10° NNE visible
15 May -0.2 07:50:12 10° NNW 07:51:23 11° N 07:52:33 10° NNE visible
15 May -1.0 09:26:34 10° NNW 09:29:12 21° NNE 09:31:49 10° ENE visible
15 May -3.9 11:02:56 10° WNW 11:06:17 70° SW 11:09:39 10° SE visible
